Miscellaneous Local Product
Issued by NWS North Platte, NE

Home | Current Version | Previous Version | Text Only | Print | Product List | Glossary On
Versions: 1 2 3 4 5 6 7 8 9 10 11 12 13 14 15 16 17 18 19 20 21 22 23 24 25 26 27 28 29 30 31 32 33 34 35 36 37 38 39 40 41 42 43 44 45 46 47 48 49 50
000
AXUS43 KLBF 262110
MISLBF


WESTERN AND NORTH CENTRAL NEBRASKA HOURLY WEATHER ROUNDUP
NATIONAL WEATHER SERVICE NORTH PLATTE NE
300 PM CST MON JAN 26 2015

***STATIONS NOT REPORTING VARIABLES SUCH AS SKY/WEATHER OR
PRESSURE ARE PROVIDED BY THE NEBRASKA DEPARTMENT OF
ROADS...RAWS...AND APRS NETWORKS...AND ARE NOT UNDER
NATIONAL WEATHER SERVICE QUALITY CONTROL***

...OBSERVATIONS IN AND NEAR THE EASTERN PANHANDLE OF NEBRASKA...

CITY           SKY/WX    TMP DP  RH WIND       PRES   REMARKS
PINE RIDGE     SUNNY     63  31  30 W12       30.05F
CHADRON          N/A     64  34  32 NW15      30.06F
ALLIANCE       SUNNY     63  37  38 NW10      30.09F
SIDNEY         SUNNY     67  30  25 NW15      30.14F
WHITECLAY        N/A     62  33  33 W9          N/A
CRESCENT LAKE    N/A     65  30  27 NW13G20     N/A
LISCO            N/A     68  25  19 W16         N/A
LEWELLEN         N/A     64  28  25 W13         N/A
$$

...OBSERVATIONS IN NORTH CENTRAL NEBRASKA...

CITY           SKY/WX    TMP DP  RH WIND       PRES   REMARKS
VALENTINE      SUNNY     62  33  33 NW15      30.01S
THEDFORD       SUNNY     65  33  29 N20G30    30.03F
AINSWORTH      SUNNY     59  34  38 NW10      30.01S
O`NEILL        SUNNY     58  32  37 NW14G21   29.99S
ORD            SUNNY     62  33  33 NW18G25   29.98S
BROKEN BOW     SUNNY     65  34  31 NW17G31   30.00S
BROWNLEE         N/A     65  30  27 NW26        N/A
SPRINGVIEW       N/A     60  37  42 W12G18      N/A
BREWSTER         N/A     66  35  30 W16         N/A
ROSE             N/A     64  40  40 W10         N/A
NEWPORT          N/A     60  31  33 NW14        N/A
SARGENT          N/A     63  36  36 NW6G16      N/A
COMSTOCK         N/A     69  35  28 W12         N/A
CHAMBERS         N/A     59  32  36 W10         N/A
EWING            N/A     57  37  47 NW7         N/A
$$

...OBSERVATIONS IN SOUTHWEST NEBRASKA AND FAR NORTHEAST COLORADO...

CITY           SKY/WX    TMP DP  RH WIND       PRES   REMARKS
WRAY           FAIR      69  30  23 NW12G17   30.14S
HOLYOKE        FAIR      72  30  21 NW18G24   30.12F
IMPERIAL       SUNNY     68  28  22 N21G29    30.09F
OGALLALA       SUNNY     66  33  28 NW15      30.09F
NORTH PLATTE   SUNNY     68  28  22 NW22G33   30.05S
MCCOOK         SUNNY     72  28  19 NW20G28   30.05S
LEXINGTON      SUNNY     68  32  25 NW18G29   30.02S
BRADY            N/A     67  33  28 S3G12       N/A
GOTHENBURG       N/A     67  29  24 NW16        N/A
CALLAWAY         N/A     64  36  35 NW18        N/A
$$

...NORTH PLATTE AREA...

CITY           SKY/WX    TMP DP  RH WIND       PRES   REMARKS
AIRPORT        SUNNY     68  28  22 NW22G33   30.05S
$$

...SOME WEATHER OBSERVATIONS FROM AROUND THE REGION...

CITY           SKY/WX    TMP DP  RH WIND       PRES   REMARKS
DENVER         MOSUNNY   70  19  14 NE9       30.21F
LARAMIE        SUNNY     59  25  27 N8        30.27F
CHEYENNE       SUNNY     66  20  17 W15G21    30.21F
SCOTTSBLUFF    SUNNY     65  38  36 W8        30.12F
RAPID CITY     SUNNY     68  29  23 N16       30.01F
PIERRE         SUNNY     56  30  37 NW14      29.97F
WINNER         FAIR      59  30  33 NW15      29.99F
SIOUX FALLS    MOSUNNY   48  37  65 NW14      29.90S
OMAHA          MOSUNNY   58  35  42 N18       29.92R
GRAND ISLAND   SUNNY     62  34  35 NW17      29.99S
KANSAS CITY    MOSUNNY   59  36  42 NW15      29.90S
WICHITA        MOSUNNY   72  34  24 NW20G26   29.98S
HAYS           SUNNY     70  30  23 NW20      30.03F
LIBERAL        SUNNY     72  32  23 NW14      30.15S
GOODLAND       SUNNY     68  30  24 NW17      30.13F
$$



USA.gov is the U.S. government's official web portal to all federal, state and local government web resources and services.